GW3844 Weather Reports


time (UTC)temp
F
wind
direction
speed
knots
gust
knots
rain 1hr
in
rain 24hr
in
rain mn
in
humidity
%
barometer
mb
20260507202654 76 83 0.0 0.0 0.00 0.00 0.00 99 1008.2
20260507202150 76 86 0.9 0.9 0.00 0.00 0.00 99 1008.1
20260507201645 77 90 0.0 0.0 0.00 0.00 0.00 99 1007.7
20260507201143 77 92 0.0 0.0 0.00 0.00 0.00 99 1007.9
20260507200639 77 90 0.0 0.9 0.00 0.00 0.00 99 1008.0
20260507200135 77 92 0.0 0.0 0.00 0.00 0.00 99 1007.9
20260507195632 77 97 0.0 0.0 0.00 0.00 0.00 99 1008.0
20260507195129 77 93 0.0 0.0 0.00 0.00 0.00 99 1008.2
20260507194626 77 87 0.0 0.0 0.00 0.00 0.00 99 1008.1
20260507194121 77 84 0.0 0.0 0.00 0.00 0.00 99 1008.1
20260507193618 77 92 0.0 0.0 0.00 0.00 0.00 99 1008.0
20260507193115 77 91 0.0 0.0 0.00 0.00 0.00 99 1008.1
20260507192612 77 98 0.0 0.0 0.00 0.00 0.00 99 1008.1
20260507192109 77 98 0.0 0.0 0.00 0.00 0.00 99 1007.9
20260507191604 77 106 0.0 0.0 0.00 0.00 0.00 99 1008.2
20260507191101 77 85 0.0 0.0 0.00 0.00 0.00 99 1007.8
20260507190558 77 92 0.0 0.0 0.00 0.00 0.00 99 1008.1
20260507190057 77 89 0.0 0.0 0.00 0.00 0.00 99 1008.2
20260507185555 77 88 0.0 0.0 0.00 0.00 0.00 99 1008.2
20260507185051 77 98 0.0 0.0 0.00 0.00 0.00 99 1008.4
20260507184550 77 98 0.0 0.0 0.00 0.00 0.00 99 1008.3
20260507184047 77 98 0.0 0.0 0.00 0.00 0.00 99 1008.4
20260507183543 77 98 0.0 0.0 0.00 0.00 0.00 99 1008.3
20260507183040 77 100 0.0 0.0 0.00 0.00 0.00 99 1008.4
20260507182536 77 101 0.0 0.0 0.00 0.00 0.00 99 1008.2
20260507182032 77 105 0.0 0.0 0.00 0.00 0.00 99 1008.8
20260507181530 77 106 0.0 0.9 0.00 0.00 0.00 99 1008.8
20260507181026 77 92 0.0 0.0 0.00 0.00 0.00 99 1008.9
20260507180522 77 92 0.0 0.0 0.00 0.00 0.00 99 1008.8
20260507180019 77 92 0.0 0.0 0.00 0.00 0.00 99 1008.8
20260507175515 77 92 0.0 0.0 0.00 0.00 0.00 99 1009.0
20260507175013 77 93 0.0 0.0 0.00 0.00 0.00 99 1008.7
20260507174510 77 100 0.0 0.0 0.00 0.00 0.00 99 1008.7
20260507174008 77 98 0.0 0.0 0.00 0.00 0.00 99 1008.7
20260507173504 77 105 0.0 0.0 0.00 0.00 0.00 99 1008.6
20260507173002 77 105 0.0 0.0 0.00 0.00 0.00 99 1008.6
20260507172457 77 99 0.0 0.0 0.00 0.00 0.00 99 1008.7
20260507171954 77 101 0.0 0.0 0.00 0.00 0.00 99 1008.7
20260507171450 77 97 0.0 0.9 0.00 0.00 0.00 99 1008.6
20260507170947 77 94 0.0 0.0 0.00 0.00 0.00 99 1008.7
20260507170444 77 99 0.0 0.0 0.00 0.00 0.00 99 1009.0
20260507165940 78 101 0.0 0.0 0.00 0.03 0.03 99 1009.1
20260507165437 78 116 0.0 0.0 0.00 0.03 0.03 99 1009.3
20260507164932 78 100 0.0 0.0 0.00 0.03 0.03 99 1009.1
20260507164430 78 105 0.0 0.0 0.00 0.03 0.03 99 1009.2
20260507163926 78 111 0.9 0.9 0.00 0.03 0.03 99 1009.1
20260507163424 78 112 0.9 0.9 0.00 0.03 0.03 99 1009.1
20260507162921 78 107 0.9 0.9 0.00 0.03 0.03 99 1009.2
20260507162416 78 111 0.0 0.0 0.00 0.03 0.03 99 1009.2
20260507161914 78 119 0.0 0.0 0.00 0.03 0.03 99 1009.4
20260507161409 78 107 0.0 0.0 0.00 0.03 0.03 99 1009.5
20260507160906 78 111 0.0 0.9 0.00 0.03 0.03 99 1009.6
20260507160402 78 111 0.0 0.0 0.00 0.03 0.03 99 1009.6
20260507155858 78 110 0.0 0.0 0.00 0.03 0.03 99 1009.5
20260507155354 78 103 0.0 0.0 0.00 0.03 0.03 99 1009.5
20260507154851 78 93 0.0 0.0 0.00 0.03 0.03 99 1009.4
20260507154348 78 101 0.0 0.0 0.00 0.03 0.03 99 1009.6
20260507153846 78 107 0.0 0.0 0.00 0.03 0.03 99 1009.4
20260507153342 78 110 0.9 0.9 0.00 0.03 0.03 99 1009.1
20260507152838 78 109 0.0 0.0 0.00 0.03 0.03 99 1009.2
20260507152334 78 100 0.0 0.0 0.00 0.03 0.03 99 1009.3
20260507151831 78 99 0.0 0.0 0.00 0.03 0.03 99 1009.0
20260507151327 78 99 0.0 0.0 0.00 0.03 0.03 99 1009.0
20260507150824 78 100 0.0 0.0 0.00 0.03 0.03 99 1009.2
20260507150321 78 84 0.0 0.9 0.00 0.03 0.03 99 1009.0
20260507145817 78 105 0.0 0.0 0.00 0.03 0.03 99 1008.9
20260507145314 79 99 0.0 0.0 0.00 0.03 0.03 99 1008.9
20260507144811 78 110 0.0 0.0 0.00 0.03 0.03 99 1008.7
20260507144308 79 95 0.0 0.0 0.00 0.03 0.03 99 1008.8
20260507143804 79 96 0.0 0.0 0.00 0.03 0.03 99 1008.6
20260507143302 79 113 1.7 1.7 0.00 0.03 0.03 98 1008.7
20260507142757 79 123 0.9 0.9 0.05 0.03 0.03 98 1008.8
20260507142254 79 117 1.7 2.6 0.05 0.03 0.03 98 1008.8
20260507141751 79 109 1.7 1.7 0.05 0.03 0.03 98 1008.6
20260507141248 79 123 1.7 1.7 0.00 0.02 0.02 98 1008.6
20260507140744 80 111 2.6 3.5 0.07 0.02 0.02 96 1008.5
20260507140242 81 105 1.7 1.7 0.12 0.02 0.02 95 1008.5
20260507135738 81 119 1.7 1.7 0.05 0.01 0.01 92 1008.5
20260507135236 84 108 1.7 2.6 0.00 0.00 0.00 87 1008.2
20260507134732 84 120 4.3 7.0 0.00 0.00 0.00 85 1008.2
20260507134228 84 134 4.3 5.2 0.00 0.00 0.00 85 1008.3
20260507133724 84 125 2.6 2.6 0.00 0.00 0.00 85 1008.2
20260507133221 84 153 3.5 3.5 0.00 0.00 0.00 86 1008.2
20260507132719 83 111 0.9 1.7 0.00 0.00 0.00 85 1007.7
20260507132215 83 107 0.0 0.0 0.00 0.00 0.00 86 1007.4
20260507131712 83 94 0.0 0.0 0.00 0.00 0.00 86 1007.6
20260507131210 83 92 0.9 0.9 0.00 0.00 0.00 85 1007.6
20260507130706 84 96 2.6 2.6 0.00 0.00 0.00 84 1007.3
20260507130204 84 359 0.9 1.7 0.00 0.00 0.00 84 1007.6
20260507125702 84 125 1.7 3.5 0.00 0.00 0.00 86 1007.6
20260507125200 84 152 1.7 2.6 0.00 0.00 0.00 85 1007.3
20260507124656 84 137 0.9 0.9 0.00 0.00 0.00 84 1007.0
20260507124153 84 90 0.9 0.9 0.00 0.00 0.00 83 1006.5
20260507123652 85 25 0.9 1.7 0.00 0.00 0.00 83 1006.8
20260507123148 85 82 0.0 0.0 0.00 0.00 0.00 83 1006.5
20260507122643 85 317 1.7 2.6 0.00 0.00 0.00 83 1006.7
20260507122139 84 44 0.9 1.7 0.00 0.00 0.00 83 1006.8
20260507121635 84 272 2.6 3.5 0.00 0.00 0.00 83 1006.7
20260507121132 84 325 1.7 2.6 0.00 0.00 0.00 83 1006.4
20260507120628 84 76 0.9 0.9 0.00 0.00 0.00 84 1006.2
20260507120124 85 81 1.7 2.6 0.00 0.00 0.00 85 1006.2
20260507115621 85 290 3.5 5.2 0.00 0.00 0.00 85 1006.2
20260507115111 84 327 0.9 1.7 0.00 0.00 0.00 86 1006.0
20260507114607 85 80 0.0 0.0 0.00 0.00 0.00 84 1005.9
20260507114105 85 76 0.9 0.9 0.00 0.00 0.00 83 1006.0
20260507113602 85 101 0.0 0.0 0.00 0.00 0.00 83 1005.7
20260507113059 85 92 0.0 0.0 0.00 0.00 0.00 84 1005.8
20260507112557 85 90 0.0 0.9 0.00 0.00 0.00 83 1005.7
20260507112053 85 93 0.0 0.0 0.00 0.00 0.00 84 1005.6
20260507111550 86 95 0.0 0.9 0.00 0.00 0.00 82 1005.6
20260507111047 86 300 1.7 1.7 0.00 0.00 0.00 82 1005.5
20260507110543 86 309 1.7 2.6 0.00 0.00 0.00 80 1005.5
20260507110040 86 29 0.9 1.7 0.00 0.00 0.00 80 1005.5
20260507105537 86 297 2.6 2.6 0.00 0.00 0.00 79 1005.6
20260507105033 86 48 0.9 1.7 0.00 0.00 0.00 80 1005.5
20260507104530 86 52 0.9 0.9 0.00 0.00 0.00 79 1005.2
20260507104026 87 94 0.0 0.0 0.00 0.00 0.00 81 1005.2
20260507103523 87 87 0.0 0.0 0.00 0.00 0.00 79 1005.4
20260507103020 87 89 0.0 0.0 0.00 0.00 0.00 78 1005.1
20260507102516 88 87 0.0 0.9 0.00 0.00 0.00 77 1005.1
20260507102012 88 22 0.9 0.9 0.00 0.00 0.00 77 1005.2
20260507101507 88 93 0.0 0.0 0.00 0.00 0.00 76 1005.0
20260507101004 89 95 0.0 0.9 0.00 0.00 0.00 75 1004.9
20260507100456 89 57 0.9 0.9 0.00 0.00 0.00 73 1005.0
20260507095954 89 91 0.9 0.9 0.00 0.00 0.00 73 1004.9
20260507095452 90 71 0.9 0.9 0.00 0.00 0.00 73 1005.0
20260507094948 89 78 0.9 0.9 0.00 0.00 0.00 72 1004.8
20260507094444 90 315 2.6 3.5 0.00 0.00 0.00 71 1004.8
20260507093941 90 24 1.7 1.7 0.00 0.00 0.00 71 1004.9
20260507093439 90 89 0.9 0.9 0.00 0.00 0.00 70 1005.0
20260507092937 90 89 0.9 1.7 0.00 0.00 0.00 68 1004.7
20260507092433 91 79 1.7 2.6 0.00 0.00 0.00 69 1004.8
20260507091930 91 320 0.9 2.6 0.00 0.00 0.00 67 1004.8
20260507091426 93 83 1.7 1.7 0.00 0.00 0.00 66 1004.6
20260507090916 93 335 1.7 1.7 0.00 0.00 0.00 64 1004.7
20260507090413 92 100 0.9 0.9 0.00 0.00 0.00 65 1004.8
20260507085909 93 75 1.7 1.7 0.00 0.00 0.00 65 1004.9
20260507085406 94 85 0.9 1.7 0.00 0.00 0.00 64 1004.8
20260507084904 94 109 1.7 1.7 0.00 0.00 0.00 63 1005.0
20260507084400 94 118 0.0 0.9 0.00 0.00 0.00 62 1005.0
20260507083858 95 19 3.5 5.2 0.00 0.00 0.00 62 1005.0
20260507083354 96 128 1.7 2.6 0.00 0.00 0.00 61 1005.1
20260507082850 95 109 0.9 0.9 0.00 0.00 0.00 59 1004.8
20260507082346 95 45 1.7 2.6 0.00 0.00 0.00 61 1005.0
20260507081843 96 191 0.9 1.7 0.00 0.00 0.00 61 1004.9
20260507081339 95 334 0.0 0.9 0.00 0.00 0.00 61 1004.9
20260507080836 95 173 1.7 2.6 0.00 0.00 0.00 61 1005.1
20260507080332 94 104 0.0 0.0 0.00 0.00 0.00 64 1004.8
20260507075828 95 281 2.6 2.6 0.00 0.00 0.00 62 1005.2
20260507075324 95 148 0.9 1.7 0.00 0.00 0.00 62 1005.4
20260507074821 93 128 0.9 0.9 0.00 0.00 0.00 63 1005.2
20260507074318 93 133 0.9 0.9 0.00 0.00 0.00 63 1005.4
20260507073815 94 121 0.9 0.9 0.00 0.00 0.00 63 1005.3
20260507073312 95 194 0.9 1.7 0.00 0.00 0.00 59 1005.4
20260507072809 95 110 0.9 1.7 0.00 0.00 0.00 59 1005.7
20260507072308 95 103 0.0 0.0 0.00 0.00 0.00 58 1005.6
20260507071804 95 103 0.9 0.9 0.00 0.00 0.00 55 1005.7
20260507071300 96 122 2.6 2.6 0.00 0.00 0.00 55 1005.8
20260507070757 95 135 2.6 2.6 0.00 0.00 0.00 55 1005.8
20260507070254 93 122 0.9 0.9 0.00 0.00 0.00 58 1006.1
20260507065751 95 216 3.5 3.5 0.00 0.00 0.00 57 1005.8
20260507065247 95 99 0.0 0.0 0.00 0.00 0.00 59 1006.3
20260507064745 95 140 0.9 0.9 0.00 0.00 0.00 54 1006.2
20260507064244 95 180 3.5 5.2 0.00 0.00 0.00 55 1006.6
20260507063740 96 207 1.7 2.6 0.00 0.00 0.00 54 1006.6
20260507063237 96 66 1.7 1.7 0.00 0.00 0.00 53 1006.5
20260507062734 96 115 1.7 2.6 0.00 0.00 0.00 54 1006.8
20260507062232 95 86 0.9 0.9 0.00 0.00 0.00 55 1006.8
20260507061730 97 55 1.7 2.6 0.00 0.00 0.00 54 1007.0
20260507061227 97 176 0.9 1.7 0.00 0.00 0.00 53 1007.3
20260507060725 95 104 0.9 0.9 0.00 0.00 0.00 56 1007.2
20260507060222 96 127 1.7 2.6 0.00 0.00 0.00 53 1007.5
20260507055718 95 85 2.6 2.6 0.00 0.00 0.00 54 1007.5
20260507055213 96 104 0.0 0.9 0.00 0.00 0.00 57 1007.6
20260507054709 95 158 0.9 1.7 0.00 0.00 0.00 56 1007.8
20260507054207 94 17 3.5 3.5 0.00 0.00 0.00 57 1007.8
20260507053704 94 57 1.7 2.6 0.00 0.00 0.00 57 1007.7
20260507053202 95 96 0.9 0.9 0.00 0.00 0.00 57 1008.0
20260507052701 96 122 0.9 1.7 0.00 0.00 0.00 57 1008.1
20260507052156 96 104 1.7 2.6 0.00 0.00 0.00 57 1008.3
20260507051654 93 112 0.0 0.9 0.00 0.00 0.00 62 1008.1
20260507051150 93 105 0.9 0.9 0.00 0.00 0.00 64 1008.5
20260507050647 93 71 0.9 1.7 0.00 0.00 0.00 63 1008.4
20260507050144 92 111 0.9 0.9 0.00 0.00 0.00 64 1008.3
20260507045641 94 72 0.9 0.9 0.00 0.00 0.00 66 1008.2
20260507045137 95 95 0.9 0.9 0.00 0.00 0.00 63 1008.5
20260507044635 93 14 0.9 1.7 0.00 0.00 0.00 67 1008.7
20260507044131 92 74 1.7 1.7 0.00 0.00 0.00 67 1008.8
20260507043627 92 56 1.7 1.7 0.00 0.00 0.00 69 1008.6
20260507043124 92 92 1.7 2.6 0.00 0.00 0.00 68 1008.8
20260507042621 91 105 1.7 1.7 0.00 0.00 0.00 73 1008.4
20260507042115 92 202 1.7 2.6 0.00 0.00 0.00 70 1008.8
20260507041612 92 91 0.0 0.0 0.00 0.00 0.00 71 1009.2
20260507041104 91 65 1.7 2.6 0.00 0.00 0.00 70 1009.2
20260507040601 90 77 1.7 1.7 0.00 0.00 0.00 70 1008.9
20260507040057 90 42 1.7 1.7 0.00 0.00 0.00 71 1009.3
20260507035553 90 88 0.9 1.7 0.00 0.00 0.00 70 1009.0
20260507035049 91 107 3.5 3.5 0.00 0.00 0.00 68 1009.3
20260507034546 92 76 0.0 0.9 0.00 0.00 0.00 67 1009.3
20260507034044 92 123 2.6 2.6 0.00 0.00 0.00 65 1009.4
20260507033542 90 101 0.9 1.7 0.00 0.00 0.00 68 1009.4
20260507033039 91 42 2.6 3.5 0.00 0.00 0.00 70 1009.5
20260507032536 90 84 0.0 0.0 0.00 0.00 0.00 69 1009.5
20260507032032 89 48 5.2 7.0 0.00 0.00 0.00 73 1009.4
20260507031528 89 55 0.9 1.7 0.00 0.00 0.00 72 1009.7
20260507031026 90 101 1.7 1.7 0.00 0.00 0.00 71 1009.9
20260507030522 89 79 0.9 0.9 0.00 0.00 0.00 72 1009.9
20260507030021 89 45 0.9 0.9 0.00 0.00 0.00 75 1009.7
20260507025517 88 104 2.6 2.6 0.00 0.00 0.00 76 1009.9
20260507025015 88 84 0.9 0.9 0.00 0.00 0.00 76 1009.8
20260507024512 87 61 2.6 3.5 0.00 0.00 0.00 80 1010.0
20260507024009 87 44 2.6 2.6 0.00 0.00 0.00 80 1009.9
20260507023504 87 69 0.9 0.9 0.00 0.00 0.00 80 1010.2
20260507023002 86 81 1.7 1.7 0.00 0.00 0.00 82 1010.1
20260507022458 86 92 0.9 1.7 0.00 0.00 0.00 82 1010.3
20260507021948 86 113 1.7 1.7 0.00 0.00 0.00 82 1010.2
20260507021444 87 102 2.6 3.5 0.00 0.00 0.00 80 1010.1
20260507020942 86 81 0.0 0.9 0.00 0.00 0.00 83 1010.2
20260507020438 85 52 2.6 2.6 0.00 0.00 0.00 84 1010.0
20260507015935 84 46 1.7 2.6 0.00 0.00 0.00 88 1010.0
20260507015433 86 13 4.3 5.2 0.00 0.00 0.00 84 1010.2
20260507014924 84 92 0.9 1.7 0.00 0.00 0.00 87 1010.0
20260507014420 84 43 3.5 3.5 0.00 0.00 0.00 89 1010.1
20260507013916 85 74 0.9 0.9 0.00 0.00 0.00 87 1010.3
20260507013413 86 45 0.9 1.7 0.00 0.00 0.00 84 1010.0
20260507012906 85 67 1.7 1.7 0.00 0.00 0.00 84 1010.3
20260507012401 85 87 0.0 0.0 0.00 0.00 0.00 84 1010.2
20260507011853 85 107 1.7 1.7 0.00 0.00 0.00 83 1009.9
20260507011349 84 41 1.7 1.7 0.00 0.00 0.00 84 1010.1
20260507010844 83 53 0.9 1.7 0.00 0.00 0.00 86 1010.0
20260507010339 83 88 0.9 0.9 0.00 0.00 0.00 88 1009.9
20260507005837 82 75 0.0 0.0 0.00 0.00 0.00 90 1010.0
20260507005333 82 87 0.0 0.0 0.00 0.00 0.00 90 1010.0
20260507004831 82 26 2.6 2.6 0.00 0.00 0.00 89 1009.8
20260507004328 82 80 0.0 0.0 0.00 0.00 0.00 90 1010.1
20260507003825 82 36 1.7 2.6 0.00 0.00 0.00 90 1010.0
20260507003321 82 96 0.0 0.0 0.00 0.00 0.00 90 1009.8
20260507002815 81 101 0.9 0.9 0.00 0.00 0.00 92 1009.9
20260507002311 81 95 0.0 0.9 0.00 0.00 0.00 92 1010.0
20260507001803 81 49 0.0 0.9 0.00 0.00 0.00 93 1009.7
20260507001300 81 76 0.0 0.0 0.00 0.00 0.00 92 1009.9
20260507000756 80 99 1.7 1.7 0.00 0.00 0.00 93 1009.7
20260507000252 80 67 0.0 0.9 0.00 0.00 0.00 96 1009.6
20260506235749 79 88 0.0 0.0 0.00 0.00 0.00 98 1009.7
20260506235244 78 92 0.0 0.0 0.00 0.00 0.00 99 1009.6
20260506234742 78 88 0.0 0.0 0.00 0.00 0.00 99 1009.4
20260506234238 77 87 0.0 0.0 0.00 0.00 0.00 99 1009.5
20260506233737 77 86 0.0 0.0 0.00 0.00 0.00 99 1009.4
20260506233233 77 88 0.0 0.0 0.00 0.00 0.00 99 1009.5
20260506232729 77 88 0.9 0.9 0.00 0.00 0.00 99 1009.1
20260506232224 76 63 0.9 1.7 0.00 0.00 0.00 99 1008.9
20260506231722 76 83 0.0 0.9 0.00 0.00 0.00 99 1008.9
20260506231220 76 79 0.0 0.0 0.00 0.00 0.00 99 1009.0
20260506230716 75 87 0.0 0.0 0.00 0.00 0.00 99 1009.0
20260506230214 75 87 0.0 0.0 0.00 0.00 0.00 99 1008.5
20260506225710 75 79 0.9 0.9 0.00 0.00 0.00 99 1008.8
20260506225207 75 91 0.9 0.9 0.00 0.00 0.00 99 1008.4
20260506224703 75 73 0.9 0.9 0.00 0.00 0.00 99 1008.6
20260506224201 75 81 0.0 0.9 0.00 0.00 0.00 99 1008.4
20260506223656 74 75 0.0 0.9 0.00 0.00 0.00 99 1008.3
20260506223152 74 84 0.0 0.0 0.00 0.00 0.00 99 1008.3
20260506222650 74 87 0.0 0.9 0.00 0.00 0.00 99 1008.0
20260506222145 74 89 0.9 0.9 0.00 0.00 0.00 99 1007.9
20260506221644 74 60 0.9 1.7 0.00 0.00 0.00 99 1007.8
20260506221141 74 65 0.9 0.9 0.00 0.00 0.00 99 1007.9
20260506220638 74 93 0.0 0.9 0.00 0.00 0.00 99 1008.1
20260506220133 74 89 0.9 0.9 0.00 0.00 0.00 99 1007.7
20260506215630 74 91 0.0 0.9 0.00 0.00 0.00 99 1008.0
20260506215125 75 98 0.0 0.9 0.00 0.00 0.00 99 1008.1
20260506214622 75 73 0.0 0.9 0.00 0.00 0.00 99 1007.7
20260506214120 75 89 1.7 1.7 0.00 0.00 0.00 99 1007.8
20260506213618 74 96 0.0 0.9 0.00 0.00 0.00 99 1007.8
20260506213115 75 100 0.0 0.0 0.00 0.00 0.00 99 1007.8
20260506212612 75 100 0.9 0.9 0.00 0.00 0.00 99 1007.7
20260506212107 75 74 0.9 0.9 0.00 0.00 0.00 99 1007.7
20260506211603 75 96 0.0 0.9 0.00 0.00 0.00 99 1007.5
20260506211100 75 87 0.0 0.0 0.00 0.00 0.00 99 1007.7
20260506210556 75 59 1.7 1.7 0.00 0.00 0.00 99 1007.5
20260506210053 75 90 0.0 0.0 0.00 0.00 0.00 99 1007.8
20260506205550 75 88 0.0 0.0 0.00 0.00 0.00 99 1007.8
20260506205045 75 89 0.0 0.9 0.00 0.00 0.00 99 1007.8
20260506204543 75 73 0.0 0.9 0.00 0.00 0.00 99 1007.7
20260506204040 75 73 0.0 0.9 0.00 0.00 0.00 99 1007.7
20260506203538 75 84 0.0 0.0 0.00 0.00 0.00 99 1007.7
20260506203034 74 63 0.9 1.7 0.00 0.00 0.00 99 1007.7